Regional Weather Roundup
Issued by NWS

Home | Current Version | Previous Version | Text Only | Print | Product List | Glossary Off
Versions: 1 2 3 4 5 6 7 8 9 10 11 12 13 14 15 16 17 18 19 20 21 22 23 24 25 26 27 28 29 30 31 32 33 34 35 36 37 38 39 40 41 42 43 44 45 46 47 48 49 50

000
ASUS45 KTFX 180104
RWRMT
MONTANA HOURLY WEATHER ROUNDUP
NATIONAL WEATHER SERVICE GREAT FALLS MT
704 PM MDT WED SEP 17 2014

NOTE: "FAIR" INDICATES FEW OR NO CLOUDS BELOW 12000 FEET WITH NO
SIGNIFICANT WEATHER AND/OR OBSTRUCTIONS TO VISIBILITY.

* THESE STATIONS ARE NOT UNDER NWS QUALITY CONTROL. THEY DO NOT
   REPORT WEATHER SUCH AS PRECIPITATION OR FOG.

MTZ001>007-043-180200-
WEST OF THE DIVIDE
CITY           SKY/WX    TMP DP  RH WIND       PRES   REMARKS
KALISPELL      CLOUDY    73  54  51 N3        29.75F
MISSOULA       CLOUDY    79  48  34 SE3       29.77F
BUTTE          CLOUDY    72  37  28 SE5       29.98F
MULLAN PASS    CLOUDY    66  41  40 VRB3      29.94S
* ESSEX        N/A       70  51  51 NW1        N/A
* LINCOLN      N/A       78  46  32 W1G7       N/A
* LOOKOUT PASS N/A       71  46  41 S3         N/A
* POLSON       N/A       73  47  40 N2         N/A
* RONAN APT    CLOUDY    77  48  36 N/A        N/A
* SEELEY LAKE  N/A       81  41  24 SW2G10     N/A
* THOMP F APT  CLOUDY    76  35  23 E2G7       N/A
$$

MTZ008-052>055-180200-
SOUTHWEST MONTANA
CITY           SKY/WX    TMP DP  RH WIND       PRES   REMARKS
BOZEMAN        CLOUDY    70  50  49 E5        29.93F
DILLON         CLOUDY    70  45  41 E6        29.95F
* THREE FORKS  CLOUDY    79  50  36 N/A        N/A
* BOULDER HILL N/A       68  36  31 S3         N/A
* MONIDA PASS  N/A       69  38  32 E5         N/A
* RAYNOLDS PAS N/A       72  70  93 N4         N/A
* WHITEHALL    N/A       74  38  27 E3G10      N/A
* WISE RIVER   N/A       72  36  27 SW5G18     N/A
$$

MTZ009>010-012-014-046-048-049-054-180200-
EAST SLOPES AND CENTRAL MONTANA
CITY           SKY/WX    TMP DP  RH WIND       PRES   REMARKS
CUT BANK       MOCLDY    73  46  38 W3        29.79F
GREAT FALLS    CLOUDY    73  52  48 S9        29.79F
HELENA         CLOUDY    75  54  48 S6        29.83F
MALMSTROM AFB  CLOUDY    73  55  53 E3        29.79F
* CONRAD       CLOUDY    79  64  60 N/A        N/A
* EAST GLACIER N/A       72  42  34 W7G12      N/A
* MONARCH      N/A       71  40  33 SW6        N/A
* PENDROY      N/A       75  50  42 N/A        N/A
* ROGERS PASS  N/A       73  40  30 SE6        N/A
* SAINT MARY   N/A       76  40  27 S6         N/A
* SWEET GRASS  N/A       79  41  26 NE2        N/A
$$

MTZ011-013-016-021-035-040-045-047-050-051-180200-
NORTH CENTRAL MONTANA
CITY           SKY/WX    TMP DP  RH WIND       PRES   REMARKS
HAVRE          PTCLDY    73  57  57 NE9       29.75F
LEWISTOWN      CLOUDY    73  52  48 E10       29.87S
* CHESTER      N/A       81  44  27 SE6G12     N/A
* DENTON       N/A       75  48  39 SE3        N/A
* GEYSER       N/A       75  55  50 SE2        N/A
* JUDITH GAP   N/A       72  48  43 S11        N/A
* LOMA         N/A       78  49  36 E8         N/A
$$

MTZ017>020-022>027-061-062-180200-
NORTHEAST MONTANA
CITY           SKY/WX    TMP DP  RH WIND       PRES   REMARKS
GLASGOW        PTCLDY    73  48  41 E13       29.80S
GLENDIVE       PTCLDY    66  46  49 E7        29.89F
JORDAN         PTCLDY    72  48  43 E3        29.82S
SIDNEY         CLEAR    N/A N/A N/A SE7       29.90F
WOLF POINT     PTCLDY    72  46  40 SE7       29.84S
* BEAVER HILL  N/A       65  48  54 E9         N/A
* CIRCLE       N/A       74  54  50 E6         N/A
* LINDSAY DVD  N/A       67  46  47 E9         N/A
* NAVAJO       N/A       69  42  38 SE8        N/A
* SACO         N/A       72  50  46 E11        N/A
$$

MTZ028>042-056>058-180200-
SOUTHCENTRAL AND SOUTHEAST MONTANA
CITY           SKY/WX    TMP DP  RH WIND       PRES   REMARKS
BAKER          PTCLDY    66  52  61 SE8       29.92S
BILLINGS       CLOUDY    82  45  27 S3        29.87R
LIVINGSTON     CLOUDY    75  43  32 SW14      29.93R
MILES CITY     MOCLDY    79  43  28 CALM      29.83S
* LAUREL APT   CLOUDY    81  45  28 S5         N/A
* ROUNDUP APT  CLOUDY    77  48  36 N/A        N/A
* ALZADA       N/A       72  50  46 E10        N/A
* HYSHAM       N/A       73  47  40 SE4        N/A
* LAME DEER    N/A       72  49  44 NE6        N/A
* REED POINT   N/A       74  45  36 VRB4G19    N/A
* ROSCOE HILL  N/A       67  40  37 W2G8       N/A
$$

REGIONAL REPORTS...DAKOTAS
CITY           SKY/WX    TMP DP  RH WIND       PRES   REMARKS
WILLISTON      CLEAR     68  43  40 SE7       29.91S
DICKINSON      CLEAR     59  46  62 SE9       29.94S
BEACH          N/A       61  46  58 E10       29.93S
CROSBY         CLEAR     61  52  72 E13       29.93S
TIOGA          CLEAR     63  41  45 SE8       29.97F
WATFORD CITY   HAZE      63  45  52 SE6       29.91S
BISMARCK       CLEAR     61  48  62 E8        29.96S
GRAND FORKS    CLEAR     57  45  64 NE12      30.03R
FARGO          CLEAR     63  52  68 N9        29.99R
BUFFALO SD     CLEAR     66  52  61 SE13      29.87S
RAPID CITY     MOCLDY    72  54  53 E10       29.93R
$$

REGIONAL REPORTS...WYOMING/IDAHO/WASHINGTON
CITY           SKY/WX    TMP DP  RH WIND       PRES   REMARKS
GILLETTE       CLEAR     72  48  43 CALM      29.93S
SHERIDAN       PTCLDY    66  55  68 CALM      29.91R
CODY           MOCLDY   N/A N/A N/A N/A        N/A
YELLOWSTONE LA PTCLDY    57  43  60 CALM      30.19F
SALMON         MOCLDY    72  50  46 NW3       29.85F
MULLAN PASS    CLOUDY    66  41  40 VRB3      29.94S
SAND POINT     CLOUDY    70  52  53 CALM      29.71F
SPOKANE        CLOUDY    81  37  21 NE6       29.71F

$$



USA.gov is the U.S. government's official web portal to all federal, state and local government web resources and services.